[[{"header":{"parameterUnit":"m.s-1","parameterCategory":1,"la1":30.2992,"la2":30.254,"lo1":-89.0895,"lo2":-89.0443,"dy":0.0025,"dx":0.0025,"nx":19,"ny":19,"refTime":"2026-05-07T09:00:00:Z","depth":0,"parameterNumber":2,"parameterNumberName":"U-component_of_WINDS"},"data":[0,0,0,-0.4651,-0.4653,-0.4748,-0.4748,-0.4862,-0.4863,0,0,0,0,0,0,0,0,0,0,0,-0.4615,-0.4615,-0.4651,-0.4653,-0.4748,-0.4749,-0.4862,-0.4863,0,0,0,0,0,0,0,0,0,0,0,-0.4615,-0.4615,-0.4616,-0.4653,-0.4748,-0.4749,-0.4862,-0.4794,0,0,0,0,0,0,0,0,0,0,-0.4703,-0.4661,-0.4615,-0.4616,-0.4654,-0.4748,-0.4749,-0.4791,-0.4798,-0.4815,0,-0.4825,0,-0.4846,-0.487,-0.487,0,0,0,-0.466,-0.4655,-0.4687,-0.4616,-0.4655,-0.4748,-0.4707,-0.4795,-0.4803,-0.4825,-0.4827,-0.4831,-0.4848,-0.4871,-0.4871,-0.494,-0.494,0,0,-0.4655,-0.4628,-0.4681,-0.4692,-0.4674,-0.4704,-0.471,-0.48,-0.4802,-0.4827,-0.4834,-0.4849,-0.4871,-0.4872,-0.494,-0.494,0,0,0,-0.4635,-0.4624,-0.4655,-0.4687,-0.4705,-0.4707,-0.4713,-0.4798,-0.481,-0.4836,-0.4851,-0.4872,-0.4873,-0.494,-0.494,-0.4913,0,0,0,-0.4632,-0.4613,-0.4652,-0.4637,-0.4703,-0.4752,-0.4709,-0.4804,-0.4815,-0.485,-0.4872,-0.4874,-0.494,-0.494,-0.4914,-0.4906,0,0,0,-0.4612,-0.4611,-0.4621,-0.4636,-0.4675,-0.4751,-0.4768,-0.4807,-0.4824,-0.4871,-0.4875,-0.494,-0.494,-0.4915,-0.4907,-0.4916,0,0,0,-0.4583,-0.4598,-0.4621,-0.4644,-0.4674,-0.4733,-0.4768,-0.4814,-0.4851,-0.4873,-0.494,-0.494,-0.4915,-0.4907,-0.4916,-0.4918,-0.4917,0,0,-0.4587,-0.4597,-0.4613,-0.4636,-0.4684,-0.4721,-0.4766,-0.4826,-0.4856,-0.4911,-0.4913,-0.4914,-0.4907,-0.4916,-0.4917,-0.4915,0,0,0,-0.4606,-0.4617,-0.4635,-0.4668,-0.4712,-0.4751,-0.4806,-0.4829,-0.4877,-0.4878,-0.4921,-0.4917,-0.4924,-0.4926,-0.4925,-0.4933,-0.494,-0.494,-0.494,-0.4575,-0.461,-0.4639,-0.4686,-0.4718,-0.4775,-0.4806,-0.4846,-0.4875,-0.4884,-0.4901,-0.4896,-0.4898,-0.4897,-0.4904,-0.4905,-0.4905,-0.4905,-0.4905,-0.4585,-0.4606,-0.4642,-0.4683,-0.4722,-0.4758,-0.4815,-0.4834,-0.4875,-0.4887,-0.4894,-0.4904,-0.4894,-0.4903,-0.4903,-0.4903,-0.4904,-0.4904,-0.4904,-0.4568,-0.4584,-0.461,-0.4662,-0.4698,-0.4748,-0.4785,-0.482,-0.4853,-0.4861,-0.4883,-0.4883,-0.4888,-0.4869,-0.4869,-0.4869,-0.4869,-0.4869,-0.4869,-0.454,-0.457,-0.4595,-0.4644,-0.4671,-0.471,-0.4769,-0.4797,-0.4837,-0.486,-0.486,-0.4888,-0.4886,-0.4884,-0.4869,-0.4869,-0.4869,-0.4869,-0.4869,-0.4536,-0.4543,-0.4581,-0.4607,-0.4669,-0.4704,-0.4748,-0.4802,-0.4831,-0.4849,-0.4876,-0.4868,-0.4881,-0.4883,-0.4882,-0.4867,-0.4867,-0.4867,-0.4867,-0.4522,-0.4532,-0.458,-0.4619,-0.4663,-0.4707,-0.4753,-0.48,-0.485,-0.4871,-0.4879,-0.4881,-0.488,-0.4895,-0.4896,-0.4895,-0.4884,-0.4884,-0.4884,-0.4522,-0.4538,-0.4568,-0.4615,-0.4666,-0.471,-0.4755,-0.4802,-0.4861,-0.4885,-0.4888,-0.4888,-0.4891,-0.489,-0.4914,-0.4915,-0.4915,0,0]},{"header":{"parameterUnit":"m.s-1","parameterCategory":1,"la1":30.2992,"la2":30.254,"lo1":-89.0895,"lo2":-89.0443,"dy":0.0025,"dx":0.0025,"nx":19,"ny":19,"refTime":"2026-05-07T09:00:00:Z","depth":0,"parameterNumber":3,"parameterNumberName":"V-component_of_WINDS"},"data":[0,0,0,5.5802,5.5805,5.5955,5.5956,5.6158,5.616,0,0,0,0,0,0,0,0,0,0,0,5.5768,5.577,5.5802,5.5806,5.5955,5.5956,5.6157,5.616,0,0,0,0,0,0,0,0,0,0,0,5.5767,5.5769,5.5772,5.5806,5.5955,5.5956,5.6157,5.6039,0,0,0,0,0,0,0,0,0,0,5.5892,5.5872,5.5769,5.5772,5.5807,5.5955,5.5956,5.6034,5.6047,5.6096,0,5.6146,0,5.6156,5.6174,5.6175,0,0,0,5.5797,5.5861,5.5892,5.5772,5.5809,5.5955,5.5885,5.6041,5.6056,5.6114,5.6148,5.6155,5.616,5.6176,5.6177,5.6495,5.6497,0,0,5.5789,5.58,5.5882,5.5902,5.5884,5.5881,5.589,5.605,5.6087,5.6149,5.616,5.6163,5.6177,5.6179,5.6493,5.6496,0,0,0,5.5771,5.5794,5.5821,5.5894,5.5921,5.5885,5.5896,5.608,5.6088,5.6162,5.6165,5.6178,5.6181,5.6491,5.6494,5.6598,0,0,0,5.5766,5.5784,5.5818,5.5826,5.5918,5.6003,5.5923,5.6077,5.6094,5.6164,5.6178,5.6183,5.6489,5.6493,5.6591,5.6644,0,0,0,5.5755,5.5782,5.5808,5.5827,5.5892,5.6,5.6017,5.608,5.6097,5.6175,5.6184,5.6488,5.6492,5.6584,5.6634,5.673,0,0,0,5.5745,5.5898,5.581,5.5981,5.5891,5.6065,5.6016,5.6144,5.6224,5.618,5.649,5.6494,5.6582,5.6627,5.6723,5.6813,5.6851,0,0,5.5944,5.5922,5.6022,5.5948,5.614,5.6041,5.6247,5.6309,5.6305,5.6431,5.6439,5.6593,5.6633,5.6729,5.7067,5.7098,0,0,0,5.6088,5.616,5.6209,5.6286,5.6338,5.6386,5.6415,5.6437,5.6544,5.6373,5.6654,5.6678,5.6733,5.6775,5.6802,5.6847,5.6514,5.6514,5.6513,5.6384,5.6372,5.6535,5.6542,5.6617,5.6645,5.6704,5.6738,5.6704,5.677,5.6807,5.7014,5.7064,5.7083,5.7131,5.6854,5.6855,5.6855,5.6855,5.6671,5.677,5.6721,5.6862,5.6847,5.6964,5.6996,5.6967,5.7072,5.6986,5.7034,5.6939,5.7118,5.7159,5.6863,5.6862,5.6861,5.686,5.6859,5.6862,5.6907,5.6933,5.7043,5.7127,5.7127,5.723,5.7213,5.7197,5.7245,5.7281,5.7279,5.7273,5.7264,5.7264,5.7265,5.7266,5.7266,5.7267,5.7049,5.7075,5.7165,5.7233,5.7279,5.7337,5.7366,5.741,5.7454,5.7433,5.7433,5.739,5.7139,5.7074,5.7278,5.7276,5.7274,5.7273,5.7273,5.7343,5.7273,5.7413,5.746,5.7536,5.7619,5.7597,5.7687,5.7721,5.7771,5.7719,5.7536,5.7512,5.7491,5.7437,5.7722,5.7722,5.7722,5.7722,5.7502,5.7489,5.7627,5.7702,5.7773,5.7767,5.792,5.7943,5.7955,5.7974,5.7931,5.7859,5.7838,5.7826,5.7798,5.7748,5.8105,5.8106,5.8106,5.7681,5.7674,5.781,5.7823,5.7881,5.7929,5.8073,5.8158,5.8157,5.8121,5.7988,5.7972,5.7856,5.782,5.778,5.7736,5.7644,0,0]}]]